Regional Weather Roundup
Issued by NWS Kansas City/Pleasant Hill, MO

Home | Current Version | Previous Version | Text Only | Print | Product List | Glossary On
Versions: 1 2 3 4 5 6 7 8 9 10 11 12 13 14 15 16 17 18 19 20 21 22 23 24 25 26 27 28 29 30 31 32 33 34 35 36 37 38 39 40 41 42 43 44 45 46 47 48 49 50
000
ASUS43 KEAX 031210
RWREAX

WEATHER ROUNDUP FOR EASTERN KANSAS AND NORTHWEST MISSOURI
NATIONAL WEATHER SERVICE KANSAS CITY/PLEASANT HILL MO
700 AM CDT SUN MAY 03 2015

KSZ040-057-103>105-MOZ028-029-037-043-031300-
...KANSAS CITY METROPOLITAN AREA...

CITY           SKY/WX    TMP DP  RH WIND       PRES   REMARKS
K.C. INTL      LGT RAIN  61  55  81 S14       29.85S
6HR MIN TEMP:  61; 6HR MAX TEMP:  67; 6HR PCP: TRACE;

K.C. DOWNTOWN  CLOUDY    65  52  62 SW12      29.86F
6HR MIN TEMP:  65; 6HR MAX TEMP:  69;

LEES SUMMIT    CLOUDY    62  52  69 S13       29.89F
6HR MIN TEMP:  62; 6HR MAX TEMP:  66;

OLATHE - IXD   CLOUDY    59  53  80 S13       29.88F
6HR MIN TEMP:  59; 6HR MAX TEMP:  65; 6HR PCP: TRACE;

OLATHE - OJC   CLOUDY    61  53  75 S10       29.88F
6HR MIN TEMP:  61; 6HR MAX TEMP:  66;

LAWRENCE       CLOUDY    61  55  81 S8        29.86F

$$

MOZ001>008-011>017-020>025-030>033-038>040-044>046-053-054-031300-
...NORTHERN AND CENTRAL MISSOURI...

CITY           SKY/WX    TMP DP  RH WIND       PRES   REMARKS
ST. JOSEPH     CLOUDY    62  54  74 CALM      29.84S
6HR MIN TEMP:  58; 6HR MAX TEMP:  67;

MOSBY          CLOUDY    63  52  67 SE10      29.86F
WARRENSBURG    MOCLDY    59  50  72 S9        29.92S
WHITEMAN AFB   MOCLDY    58  52  80 S8        29.93S
6HR MIN TEMP:  55; 6HR MAX TEMP:  61;

CLINTON        MOCLDY    61  52  72 S7        29.96R
SEDALIA        MOCLDY    62  50  64 S12G20    29.96R
6HR MIN TEMP:  58; 6HR MAX TEMP:  62;

WARSAW         NOT AVBL
MARSHALL       PTCLDY    64  54  68 S12       29.94R
CHILLICOTHE      N/A     64  52  64 S6        29.90S
6HR MIN TEMP:  58; 6HR MAX TEMP:  66;

MOBERLY        PTCLDY    61  46  59 S10       29.95R
KIRKSVILLE     MOCLDY    59  52  77 S10       29.92S
6HR MIN TEMP:  53; 6HR MAX TEMP:  59;


$$

MOZ041-047>049-056>058-063>065-088>090-097-031300-
...EASTERN AND SOUTHERN MISSOURI...

CITY           SKY/WX    TMP DP  RH WIND       PRES   REMARKS
ST. LOUIS INTL PTSUNNY   64  43  46 S7        30.01R
6HR MIN TEMP:  64; 6HR MAX TEMP:  69;

SPIRIT OF STL  MOCLDY    59  47  64 CALM      29.99R
COLUMBIA       MOCLDY    58  48  69 S8        29.97R
JEFFERSON CITY MOCLDY    60  46  59 SE5       29.98R
MEXICO         PTCLDY    59  50  72 S8        29.96R
HANNIBAL       MOCLDY    57  45  62 S9        29.96R
ROLLA          CLOUDY    59  46  62 S10       29.99R
LEBANON        CLOUDY    57  48  72 S5        30.01R
OSAGE BEACH    CLOUDY    57  46  67 S7        29.99R
SPRINGFIELD    MOCLDY    57  49  74 SE12      29.99R
BRANSON        MOCLDY    57  48  72 S5        30.02R
NEVADA         MOCLDY    57  52  82 S9        29.96R
JOPLIN         PTCLDY    60  51  72 S10       29.96R
WEST PLAINS    MOCLDY    59  40  49 S5        30.04R

$$

IAZ060-094-KSZ022-034>040-054-083-096-NEZ052-066-093-031300-
...KANSAS...SOUTHEAST NEBRASKA AND IOWA...

CITY           SKY/WX    TMP DP  RH WIND       PRES   REMARKS
TOPEKA         CLOUDY    64  56  75 S9        29.84F
6HR MIN TEMP:  63; 6HR MAX TEMP:  68; 6HR PCP:  0.09;

MANHATTAN      MOCLDY    65  56  72 S14       29.78S
EMPORIA        CLOUDY    60  54  80 S16       29.84F
CHANUTE        CLOUDY    62  53  72 S13       29.91R
WICHITA        MOCLDY    62  54  74 S13       29.84R
OMAHA          MOCLDY    62  56  80 S15       29.74S
LINCOLN        CLEAR     60  54  80 S10       29.75F
FALLS CITY     PTCLDY    59  54  83 SE6       29.80F
LAMONI         CLOUDY    59  53  80 S12       29.84F
DES MOINES     CLOUDY    60  56  86 N3        29.79R

$$




USA.gov is the U.S. government's official web portal to all federal, state and local government web resources and services.